Vertical_Velocity
7 24 -10 6 2 8 -6 4 -3 2 7 -6 -3 1 5 -12 -4 12 -2 6 4 -1 -3 7 14 8 11 15 8 4 -10 -16 7 11 8 10 -3 -1 -0 1 -0 -0 -3 -1
-1 4 3 -20 7 20 7 2 0 8 -3 0 6 7 -1 -9 -1 1 12 1 4 -5 -1 4 3 12 10 0 -0 1 5 -26 9 11 7 4 2 -1 2 2 -5 -2 -1 -2
0 6 12 -61 -10 2 10 6 11 -14 5 -10 0 -0 8 13 1 -1 10 4 2 5 2 3 3 4 6 15 4 -5 16 -6 17 24 7 -0 5 -2 -2 1 2 -4 0 -2
-2 1 -12 5 12 5 6 3 3 11 3 0 -0 1 4 11 -0 3 10 6 1 -0 -4 -1 2 -7 -3 2 -1 -12 6 -3 32 6 0 7 1 -0 -1 -0 -3 0 1 2
-11 -6 -1 -2 -10 -3 0 1 8 4 12 11 8 17 -29 -4 -1 11 -2 1 4 1 5 2 -0 2 14 43 23 -10 10 -10 0 16 4 8 -4 -1 6 -1 -3 -2 1 2
-13 -7 3 25 8 4 6 -6 3 6 10 3 4 -29 13 22 14 -6 -2 -0 4 5 1 7 2 -7 13 28 21 2 -17 -8 25 12 -1 -3 0 1 6 6 5 3 3 3
-2 0 5 10 -1 3 -29 3 1 6 8 4 1 -8 18 28 3 -1 -31 -11 -19 -4 18 -37 -25 -5 -11 -4 11 -10 5 -11 -14 -15 0 -11 5 -3 12 3 4 -0 2 -0
-3 -4 -4 -0 -1 -30 12 4 2 -0 -1 5 20 19 21 24 22 11 10 9 5 -2 2 9 1 5 -0 -8 7 0 -17 6 -7 -4 2 5 -9 -10 5 7 4 -0 3 3
-8 27 11 9 8 8 7 7 3 9 9 5 8 14 10 19 2 3 10 7 12 10 2 -4 21 -3 0 -1 19 13 3 10 28 3 13 -1 4 13 -10 -6 -0 1 8 -1
-12 6 1 2 7 5 5 2 4 8 -12 -4 -5 -5 0 14 1 2 -7 10 8 9 10 6 4 -6 -14 -7 8 5 -18 36 13 62 27 -16 15 5 9 -1 -0 -1 -3 -1
1 4 7 -0 -3 -2 3 13 6 6 -1 -2 -2 -2 1 1 -8 -8 -4 1 -3 3 7 -8 -10 1 12 -1 7 24 10 -18 -13 27 14 -9 2 10 9 -9 -3 6 3 8
-5 4 -4 0 6 5 2 0 5 11 19 -1 -2 -4 0 -0 -5 -1 0 -1 3 2 9 15 3 16 -0 -12 -10 11 8 -3 8 19 40 2 22 10 14 -4 -3 39 14 12
2 -4 8 6 1 -2 1 -3 -5 0 -4 14 12 0 -1 -5 -1 0 9 2 0 0 5 7 8 1 -3 -1 15 16 -15 -13 -4 -4 9 3 10 4 -3 37 45 14 15 -7
1 -2 -3 -6 -8 -0 -5 -4 -1 -1 3 -3 6 18 4 6 10 3 -0 -4 -4 -2 9 1 -3 -0 -0 1 -3 -1 -2 11 15 -13 -20 -16 -3 -4 -16 5 18 -0 3 19
0 1 -1 -2 -4 -0 2 3 0 -4 -8 -2 -5 -1 4 -0 -0 -2 -2 -1 -0 3 2 -1 1 2 4 -1 0 -3 -4 -6 2 8 10 -1 -7 -1 -27 13 15 11 -6 -6
1 2 4 3 2 4 -0 -2 -2 -4 4 -0 0 -2 -5 -2 -3 1 -1 1 5 -4 -5 -1 1 1 6 -4 -2 3 2 5 3 1 1 6 14 5 10 -5 -8 -13 -3 4
1 2 4 4 1 -0 -2 -1 -2 -2 -1 2 -4 -2 0 -4 3 4 4 2 -1 -3 -6 -0 -1 -4 1 -4 -0 -1 0 -1 -1 1 -1 -4 1 2 3 7 -1 4 15 1
-1 -3 -4 -3 -2 -1 0 0 0 -1 -2 -5 -6 -2 -1 -1 -3 -4 -1 1 1 -0 -2 -3 -5 -3 2 -2 0 -2 -2 -1 -1 1 1 -0 -0 -2 -2 -2 -0 -5 -4 -2
0 -2 -1 -1 -2 -3 -3 -2 -0 1 -1 -1 -2 -8 -8 -6 -7 -7 1 -5 -3 -1 1 1 0 -4 -6 -3 -1 -3 0 -2 -2 -2 -0 1 1 -0 -0 -2 -2 -4 -1 -1
1 -1 -2 -2 -2 -2 -2 -3 -3 -3 -2 -2 -2 0 -3 -8 -8 -7 -2 -4 -6 -4 -2 -1 0 1 -2 -3 -4 -4 -5 -4 -0 -0 -0 -0 -0 -2 -3 -2 -1 -0 2 -4
4 2 2 1 2 0 -1 -3 -4 -3 -2 -0 -1 -0 -1 0 0 -3 -5 -11 -9 -4 -3 -3 -4 -1 3 6 3 -1 -3 -4 -3 -3 -2 -1 -2 -3 -2 -2 -3 -2 1 1
-0 -4 -6 -2 0 -0 -0 0 1 -1 -2 -2 -2 -3 -4 -5 -3 1 0 -2 -3 -5 -10 -6 -6 -8 -7 -7 -6 -5 -3 -2 -3 -3 -0 -0 1 2 1 -2 -3 -4 -4 -2
-1 -4 -4 -4 -2 -2 1 0 -0 -1 -2 -2 -4 -4 -3 -2 -3 -5 -3 -0 1 4 5 2 -5 -7 -5 -5 -6 -5 -3 -1 -0 1 -0 -1 1 -0 -0 1 0 -0 -3 -2
-3 -3 -2 -0 -2 -3 -3 -3 -1 0 -0 -1 -1 -1 -3 -4 -2 -2 -4 -7 -9 -8 -6 -5 -1 1 0 -2 -2 -2 -3 -4 -2 -1 1 2 -1 0 -1 -2 -2 -2 1 -1
-1 -2 -3 -2 -2 -1 -2 -2 -2 -0 -1 -2 -3 -3 -0 -1 -2 -3 -4 -2 -0 -0 -2 -4 -7 -9 -9 -5 -2 -2 -3 -4 -4 -2 -0 2 1 -0 -0 -2 -2 -2 -1 1
-2 0 0 -1 0 0 -1 -2 -2 -1 -2 -2 -2 -3 -3 -2 -2 -3 -3 -2 -2 -2 -3 -2 -0 1 -2 -5 -7 -9 -9 -8 -5 -2 -1 -2 -2 -0 -1 -1 -1 -2 -0 1
-1 -2 -1 0 2 0 -1 -3 -4 -3 -1 -1 -1 -2 -1 -1 -3 -4 -3 -2 -1 -1 -1 -1 -2 -1 1 1 -1 -1 -2 -3 -4 -6 -7 -6 -4 -2 1 4 4 3 5 5
Height
2999 2995 2988 2989 2994 2997 2996 3001 3003 3004 3000 2998 2992 2985 2985 2987 2987 2988 2989 2991 2996 3002 3008 3016 3023 3028 3035 3038 3040 3039 3043 3049 3061 3074 3084 3090 3096 3103 3109 3116 3121 3127 3130 3134
2999 2999 2995 2995 3002 3003 3002 3003 3004 3003 3000 2998 2995 2992 2991 2990 2986 2988 2991 2990 2992 2997 3004 3011 3019 3025 3029 3032 3034 3036 3038 3046 3056 3068 3075 3081 3090 3097 3104 3110 3116 3121 3125 3129
3005 3003 3002 2998 3014 3016 3017 3012 3009 3005 3007 2997 2996 2993 2991 2989 2989 2989 2991 2991 2994 2997 3003 3008 3015 3020 3025 3030 3032 3035 3035 3043 3047 3057 3067 3078 3086 3092 3098 3104 3111 3116 3120 3125
3006 3004 3015 3029 3024 3022 3020 3016 3012 3010 3003 2997 2996 2994 2992 2986 2987 2991 2993 2993 2994 2998 3002 3008 3012 3016 3021 3023 3023 3027 3032 3038 3042 3054 3064 3072 3080 3087 3093 3099 3105 3110 3115 3119
3015 3019 3031 3027 3024 3024 3021 3021 3014 3009 3003 2998 2996 2993 2993 2982 2986 2992 2994 2994 2995 2998 3003 3007 3012 3012 3014 3007 3019 3021 3026 3032 3039 3048 3058 3066 3073 3080 3087 3093 3098 3104 3109 3114
3022 3026 3040 3042 3031 3027 3025 3024 3018 3011 3008 3005 3000 2994 2989 2987 2991 2993 2995 2997 2995 2997 3001 3006 3008 3008 3009 3008 3010 3016 3019 3028 3033 3042 3052 3061 3069 3074 3081 3086 3093 3098 3103 3107
3030 3033 3047 3045 3037 3033 3028 3042 3028 3021 3015 3011 3006 3003 2997 2994 2993 2993 2994 2998 2998 2998 2997 3003 3003 3004 3005 3005 3008 3011 3019 3024 3030 3037 3045 3052 3060 3067 3074 3079 3085 3091 3096 3100
3040 3042 3053 3050 3043 3038 3050 3042 3035 3028 3024 3020 3014 3008 3002 2999 2996 2997 2995 2997 2999 2999 3000 2999 2999 3001 3001 3001 3004 3009 3013 3021 3028 3034 3040 3046 3053 3059 3064 3070 3076 3082 3087 3091
3053 3063 3064 3059 3054 3052 3049 3045 3041 3036 3031 3025 3018 3013 3008 3004 3002 3000 2998 2996 2996 2997 2998 2996 2994 2996 2997 2998 2998 3003 3010 3013 3020 3025 3031 3040 3044 3049 3057 3062 3067 3072 3077 3082
3062 3068 3066 3064 3061 3059 3056 3052 3047 3042 3035 3031 3026 3020 3014 3011 3008 3003 3003 3000 2998 2999 2996 2997 2996 2996 2996 2995 2999 2999 3006 3011 3016 3013 3019 3029 3036 3042 3049 3054 3058 3063 3068 3073
3068 3070 3070 3068 3065 3064 3062 3059 3054 3048 3042 3037 3034 3028 3022 3017 3014 3012 3011 3010 3007 3003 2998 3000 3001 3000 2998 2997 3000 3000 3002 3007 3013 3014 3018 3023 3030 3037 3043 3049 3052 3058 3062 3063
3076 3076 3074 3072 3070 3068 3064 3059 3057 3054 3049 3043 3038 3035 3031 3026 3023 3021 3017 3014 3011 3009 3007 3006 3006 3006 3004 3002 3001 3000 3003 3005 3007 3008 3017 3019 3025 3032 3038 3041 3043 3042 3047 3053
3082 3080 3078 3076 3073 3071 3066 3063 3060 3057 3053 3050 3046 3042 3038 3034 3031 3028 3023 3019 3017 3014 3013 3011 3009 3007 3010 3010 3007 3006 3006 3008 3005 3008 3005 3014 3022 3027 3030 3031 3036 3038 3037 3042
3086 3084 3083 3080 3077 3075 3072 3069 3065 3062 3058 3054 3049 3046 3043 3040 3036 3031 3026 3024 3022 3020 3018 3015 3013 3011 3013 3012 3012 3011 3013 3012 3011 3009 3011 3013 3015 3015 3018 3023 3028 3026 3032 3035
3089 3087 3085 3084 3082 3079 3075 3073 3070 3066 3062 3058 3053 3048 3044 3039 3036 3033 3031 3030 3028 3024 3021 3019 3018 3016 3014 3013 3012 3014 3015 3016 3017 3016 3016 3017 3017 3017 3022 3024 3024 3025 3027 3029
3091 3090 3088 3086 3083 3080 3076 3073 3070 3066 3063 3060 3057 3052 3046 3043 3040 3037 3035 3033 3030 3027 3024 3021 3019 3017 3016 3016 3015 3015 3015 3016 3017 3017 3019 3020 3019 3020 3021 3024 3024 3024 3026 3026
3093 3091 3089 3086 3083 3080 3077 3074 3071 3068 3065 3062 3058 3055 3052 3047 3044 3040 3036 3033 3029 3027 3026 3025 3022 3020 3018 3018 3017 3016 3015 3015 3015 3015 3017 3018 3019 3019 3021 3020 3022 3024 3023 3022
3094 3091 3089 3087 3084 3081 3078 3075 3072 3069 3066 3063 3060 3058 3056 3053 3047 3042 3039 3036 3033 3030 3028 3027 3025 3023 3021 3019 3017 3016 3015 3014 3013 3014 3014 3013 3013 3015 3015 3016 3017 3018 3017 3018
3095 3093 3090 3088 3085 3082 3078 3075 3072 3069 3066 3064 3062 3059 3057 3054 3051 3047 3043 3039 3036 3033 3030 3026 3025 3024 3023 3021 3019 3017 3015 3015 3013 3012 3011 3010 3009 3009 3010 3010 3011 3012 3012 3013
3095 3094 3091 3089 3086 3083 3080 3076 3072 3069 3066 3064 3062 3059 3057 3054 3052 3049 3046 3041 3037 3032 3029 3027 3024 3022 3021 3019 3018 3016 3014 3013 3012 3011 3009 3007 3006 3006 3006 3006 3006 3006 3006 3007
3095 3093 3091 3089 3087 3083 3080 3076 3073 3070 3067 3064 3061 3059 3057 3053 3050 3047 3044 3042 3039 3036 3032 3028 3025 3021 3018 3016 3015 3014 3012 3011 3010 3007 3006 3005 3004 3003 3003 3001 3001 3001 3001 3001
3095 3093 3091 3089 3086 3083 3080 3076 3073 3070 3067 3064 3061 3058 3056 3053 3050 3047 3043 3040 3036 3034 3032 3028 3024 3020 3017 3014 3012 3010 3009 3008 3006 3005 3003 3002 3001 2999 2998 2997 2997 2996 2996 2995
3093 3091 3090 3088 3085 3083 3080 3076 3073 3069 3066 3063 3061 3058 3055 3052 3049 3045 3042 3037 3032 3028 3026 3023 3021 3018 3015 3012 3010 3007 3005 3003 3002 3001 3000 2998 2997 2995 2994 2993 2993 2992 2992 2991
3090 3089 3087 3086 3084 3082 3079 3076 3072 3069 3065 3062 3059 3057 3054 3050 3047 3043 3038 3034 3029 3025 3021 3018 3015 3013 3010 3007 3005 3002 3001 2999 2997 2995 2993 2993 2992 2991 2990 2989 2988 2988 2988 2988
3086 3085 3084 3083 3082 3080 3077 3074 3071 3068 3064 3061 3058 3055 3052 3049 3045 3041 3036 3032 3028 3025 3021 3017 3013 3008 3005 3003 3001 2998 2995 2993 2991 2991 2989 2988 2986 2985 2984 2984 2983 2983 2983 2983
3083 3081 3080 3079 3078 3077 3075 3072 3070 3067 3064 3061 3057 3054 3051 3048 3044 3039 3035 3031 3026 3022 3018 3014 3010 3006 3002 2998 2995 2992 2990 2988 2987 2986 2986 2985 2983 2981 2980 2979 2978 2978 2978 2977
3079 3078 3076 3075 3073 3072 3070 3069 3067 3064 3061 3058 3055 3053 3050 3047 3043 3038 3034 3030 3025 3020 3015 3011 3006 3002 2999 2996 2992 2989 2986 2983 2982 2981 2981 2981 2979 2978 2977 2976 2975 2975 2974 2973